BEIJING 1 1 28890U 05043A 26072.97981073 .00000272 00000+0 61970-4 0 9997 2 28890 98.2731 205.7481 0013781 215.8407 144.1872 14.63464678 86722 HUANJING 1A (HJ-1A) 1 33320U 08041A 26072.95135301 .00001493 00000+0 18603-3 0 9995 2 33320 97.6641 62.5177 0020738 90.6225 269.7366 14.83736769944288 HUANJING 1B (HJ-1B) 1 33321U 08041B 26072.94644400 .00001704 00000+0 21286-3 0 9996 2 33321 97.6489 65.9640 0037462 134.1340 226.2966 14.83117191944292 YAOGAN-4 1 33446U 08061A 26072.29603381 .00001560 00000+0 19828-3 0 9996 2 33446 97.9248 6.5617 0015102 28.3811 331.8222 14.82990653931458 DEIMOS-1 1 35681U 09041A 26072.95385645 .00001061 00000+0 16439-3 0 9992 2 35681 97.7266 234.3746 0002443 112.1481 247.9988 14.75124653892848 UK-DMC 2 1 35683U 09041C 26072.90730160 .00000982 00000+0 15024-3 0 9995 2 35683 97.8655 210.2978 0001182 96.0180 264.1165 14.75862750892517 DMC3-FM1 1 40715U 15032A 26072.97162375 .00000668 00000+0 83122-4 0 9994 2 40715 97.6609 301.8074 0006132 20.9008 339.2457 14.85619891575776 DMC3-FM2 1 40716U 15032B 26072.92659288 .00000860 00000+0 10531-3 0 9991 2 40716 97.6663 303.2723 0006733 25.2306 334.9237 14.85624528575760 DMC3-FM3 1 40717U 15032C 26072.94967017 .00001216 00000+0 14642-3 0 9999 2 40717 97.6718 304.9861 0006048 27.1514 333.0017 14.85625920575778